World > North America > United States > Illinois

Hourly Quarry, IL Regional Weather

Feedback E-mail the Weather

Quick WX

Quarry, IL Weather Maps

°F °C°F °C
Quarry Weather Map
UTC Time: 6/27/2022, 20:49
Your Time:

Quarry, IL Regional Weather

Expires:202206272100;;292047
ASUS43 KLOT 272009
RWRIL 

ILLINOIS REGIONAL WEATHER ROUNDUP
NATIONAL WEATHER SERVICE CHICAGO/ROMEOVILLE IL
300 PM CDT MON JUN 27 2022

NOTE: "FAIR" INDICATES FEW OR NO CLOUDS BELOW 12,000 FEET WITH NO
SIGNIFICANT WEATHER AND/OR OBSTRUCTIONS TO VISIBILITY.

* THESE STATIONS ARE NOT UNDER NWS QUALITY CONTROL. THEY ALSO MAY NOT
  REPORT WEATHER SUCH AS PRECIPITATION OR FOG.


ILZ025>027-034>036-040-047-049-050-058-095>099-272100-
WEST-CENTRAL ILLINOIS
  
CITY           SKY/WX    TMP DP  RH WIND       PRES   REMARKS
QUINCY         MOSUNNY   79  48  33 N6        30.28F                  
GALESBURG*     SUNNY     76  56  49 N9G16     30.28S                  
MACOMB*        SUNNY     77  47  34 NE13      30.29F                  
JACKSONVILLE*  SUNNY     77  49  38 N9        30.27F                  
PITTSFIELD*    SUNNY     78  50  37 N5        30.29F                  
$$


SKY/WX - Weather  TMP - Temperature  DP - Dew Point  RH - Humidity
WIND - Wind Direction/Speed PRES - Barometric Pressure VSB - Visibility
WCI - Wind Chill Index E13G22 Wind - East Wind 13 mph/Gusts of 22 mph

Trending Headlines

Quarry Radar Loop



Quarry Quick Facts


National Two Day Weather Forecast


E-mail the Quarry Weather Forecast

Voice your opinion or tell us about page issues...